Weather History for Frederick, MD

Change the Weather History Date:

Thursday, February 7, 2013

  Actual Average (KHGR) Record (KHGR)
Temperature  
Mean Temperature 29 °F -  
Max Temperature 37 °F 40 °F - (0)
Min Temperature 21 °F 25 °F - (0)
Degree Days  
Heating Degree Days 36    
Moisture  
Dew Point 25 °F    
Average Humidity 87    
Maximum Humidity 100    
Minimum Humidity 65    
Precipitation  
Precipitation 0.00 in - - ()
Sea Level Pressure  
Sea Level Pressure 30.37 in    
Wind  
Wind Speed 2 mph (East)    
Max Wind Speed 8 mph    
Max Gust Speed -    
Visibility 10 miles    
Events      
T = Trace of Precipitation, MM = Missing Value Source: NWS Daily Summary

Daily Weather History Graph

Daily Weather History Graph

Search for Another Location

Airport:

Trip Planner

Search our weather history database for the weather conditions in past years. The results will help you decide how hot, cold, wet, or windy it might be!

Date:

Astronomy

Feb. 07, 2013 Rise Set
Actual Time 7:10 AM EST 5:37 PM EST
Civil Twilight 6:42 AM EST 6:05 PM EST
Nautical Twilight 6:10 AM EST 6:37 PM EST
Astronomical Twilight 5:39 AM EST 7:08 PM EST
Moon 4:47 AM EST (2/7) 2:59 PM EST (2/7)
Length of Visible Light 11h 22m
Length of Day
10h 26m
Waning Crescent, 9% of the Moon is Illuminated
Feb 7
Waning Crescent
Feb 10
New
Feb 17
First Quarter
Feb 25
Full
Mar 4
Last Quarter

Hourly Weather History & Observations

Time (EST) Temp. Windchill Dew Point Humidity Pressure Visibility Wind Dir Wind Speed Gust Speed Precip Events Conditions
12:15 AM 26.6 °F - 23.0 °F 86% 30.37 in 10.0 mi Calm Calm - N/A   Clear
12:35 AM 23.0 °F 18.4 °F 21.2 °F 93% 30.38 in 10.0 mi SW 3.5 mph - N/A   Clear
12:55 AM 23.0 °F 18.4 °F 21.2 °F 93% 30.39 in 10.0 mi NW 3.5 mph - N/A   Clear
1:15 AM 23.0 °F - 21.2 °F 93% 30.40 in 10.0 mi Calm Calm - N/A   Clear
1:35 AM 24.8 °F 19.1 °F 23.0 °F 93% 30.40 in 10.0 mi SE 4.6 mph - N/A   Clear
1:55 AM 23.0 °F - 23.0 °F 100% 30.42 in 10.0 mi Calm Calm - N/A   Clear
2:15 AM 21.2 °F - 21.2 °F 100% 30.43 in 10.0 mi Calm Calm - N/A   Clear
2:35 AM 23.0 °F - 23.0 °F 100% 30.43 in 10.0 mi Calm Calm - N/A   Clear
2:55 AM 21.2 °F - 21.2 °F 100% 30.42 in 7.0 mi Calm Calm - N/A   Clear
3:15 AM 23.0 °F - 23.0 °F 100% 30.42 in 10.0 mi Calm Calm - N/A   Clear
3:35 AM 23.0 °F - 23.0 °F 100% 30.41 in 7.0 mi Calm Calm - N/A   Clear
3:55 AM 23.0 °F - 23.0 °F 100% 30.40 in 7.0 mi Calm Calm - N/A   Clear
4:15 AM 23.0 °F - 23.0 °F 100% 30.40 in 7.0 mi Calm Calm - N/A   Clear
4:35 AM 23.0 °F - 23.0 °F 100% 30.40 in 7.0 mi Calm Calm - N/A   Clear
4:55 AM 23.0 °F - 23.0 °F 100% 30.41 in 10.0 mi Calm Calm - N/A   Clear
5:15 AM 24.8 °F - 24.8 °F 100% 30.43 in 7.0 mi Calm Calm - N/A   Clear
5:35 AM 24.8 °F - 24.8 °F 100% 30.43 in 10.0 mi Calm Calm - N/A   Clear
5:45 AM 24.8 °F - 24.8 °F 100% 30.43 in 10.0 mi Calm Calm - N/A   Clear
6:50 AM 24.8 °F - 24.8 °F 100% - - Calm Calm - N/A   Clear
7:55 AM 26.6 °F - 26.6 °F 100% 30.46 in 10.0 mi Calm Calm - N/A   Clear
8:55 AM 28.4 °F - 26.6 °F 93% 30.48 in 10.0 mi Calm Calm - N/A   Overcast
9:45 AM 30.2 °F - 26.6 °F 86% 30.46 in 7.0 mi Calm Calm - N/A   Overcast
10:50 AM 32.0 °F 28.7 °F 26.6 °F 80% 30.46 in 10.0 mi North 3.5 mph - N/A   Overcast
11:50 AM 33.8 °F - 26.6 °F 75% 30.44 in 10.0 mi Calm Calm - N/A   Scattered Clouds
12:45 PM 35.6 °F 30.7 °F 24.8 °F 65% 30.40 in 10.0 mi SE 5.8 mph - N/A   Scattered Clouds
2:59 PM 37.4 °F 31.4 °F 26.6 °F 65% 30.34 in 10.0 mi ESE 8.1 mph - N/A   Overcast
3:50 PM 37.4 °F 31.4 °F 26.6 °F 65% 30.33 in 10.0 mi SE 8.1 mph - N/A   Mostly Cloudy
4:47 PM 35.6 °F 29.9 °F 24.8 °F 65% 30.32 in 10.0 mi ESE 6.9 mph - N/A   Mostly Cloudy
5:45 PM 35.6 °F 30.7 °F 24.8 °F 65% 30.33 in 10.0 mi SE 5.8 mph - N/A   Overcast
6:45 PM 35.6 °F 31.7 °F 24.8 °F 65% 30.34 in 10.0 mi Variable 4.6 mph - N/A   Overcast
7:45 PM 35.6 °F 32.8 °F 24.8 °F 65% 30.33 in 10.0 mi Variable 3.5 mph - N/A   Overcast
8:00 PM 33.8 °F 27.7 °F 26.6 °F 75% 30.33 in 10.0 mi East 6.9 mph - N/A   Overcast
8:20 PM 33.8 °F 29.6 °F 26.6 °F 75% 30.32 in 10.0 mi East 4.6 mph - N/A   Overcast
8:40 PM 33.8 °F 30.8 °F 26.6 °F 75% 30.32 in 10.0 mi ENE 3.5 mph - N/A   Overcast
9:00 PM 33.8 °F 28.6 °F 26.6 °F 75% 30.31 in 10.0 mi ENE 5.8 mph - N/A   Overcast
9:20 PM 33.8 °F 29.6 °F 28.4 °F 81% 30.30 in 10.0 mi ENE 4.6 mph - N/A   Overcast
9:40 PM 33.8 °F 28.6 °F 28.4 °F 81% 30.29 in 10.0 mi East 5.8 mph - N/A   Overcast
10:00 PM 33.8 °F 30.8 °F 28.4 °F 81% 30.29 in 10.0 mi NE 3.5 mph - N/A   Overcast
10:20 PM 33.8 °F 29.6 °F 30.2 °F 87% 30.28 in 10.0 mi ENE 4.6 mph - N/A   Overcast
10:40 PM 33.8 °F 29.6 °F 30.2 °F 87% 30.27 in 10.0 mi NE 4.6 mph - N/A   Overcast
11:00 PM 33.8 °F 29.6 °F 30.2 °F 87% 30.26 in 10.0 mi NE 4.6 mph - N/A   Overcast
11:20 PM 33.8 °F 28.6 °F 30.2 °F 87% 30.25 in 10.0 mi ENE 5.8 mph - N/A   Overcast
11:40 PM 33.8 °F 29.6 °F 30.2 °F 87% 30.26 in 10.0 mi NE 4.6 mph - N/A   Overcast